Other Public Products
Issued by NWS Grand Forks, ND

Home | Current Version | Previous Version | Text Only | Print | Product List | Glossary On
Versions: 1 2 3 4 5 6 7 8 9 10 11 12 13 14 15 16 17 18 19 20 21 22 23 24 25 26 27 28 29 30 31 32 33 34 35 36 37 38 39 40 41 42 43 44 45 46 47 48 49 50
000
FPUS83 KFGF 201610
OPUFGF
PRAIRIE TO PINES WEATHER ROUNDUP
NATIONAL WEATHER SERVICE EASTERN NORTH DAKOTA/GRAND FORKS ND
1100 AM CDT SUN APR 20 2014

 **SATELLITE DATA USED TO AUGMENT SKY COVER AT AUTOMATED STATIONS**
 *****  WEATHER ACROSS EASTERN NORTH DAKOTA  *****

CITY           SKY/WX    TMP DP  RH WIND       PRES   REMARKS
GRAND FORKS    MOSUNNY   52  37  56 S8        30.01F
GRAND FORKS AF SUNNY     53  38  56 VRB6      30.01F
GRAND CITY NWS   N/A     52 N/A N/A S7          N/A
BUXTON         NOT AVBL
DEVILS LAKE    SUNNY     54  37  54 S15       29.96F
FARGO          SUNNY     59  36  42 S9        30.01S
WAHPETON ARPT  SUNNY     59  34  38 SE8       30.02S
$$

 *****  WEATHER ACROSS CENTRAL AND WESTERN NORTH DAKOTA  *****

CITY           SKY/WX    TMP DP  RH WIND       PRES   REMARKS
JAMESTOWN      SUNNY     59  39  47 SE13      29.96F
BISMARCK       SUNNY     60  37  42 SE9       29.94F
MINOT          MOSUNNY   59  35  40 SE9       29.87F
MINOT AFB      MOSUNNY   53  42  66 SE7       29.87F
GARRISON         N/A     56  36  47 S13       29.89F
WILLISTON      PTSUNNY   55  33  43 S7        29.84S
DICKINSON      CLOUDY    59  31  34 S14       29.87S
HETTINGER      MOSUNNY   61  31  32 S12G17    29.91F
$$

 *****  OTHER OBSERVATIONS NORTHEAST NORTH DAKOTA  *****

CITY           SKY/WX    TMP DP  RH WIND       PRES   REMARKS
WALHALLA         N/A     45  32  61 SE5       30.02F
LANGDON        FAIR      52  36  54 S12       29.98S
CAVALIER       FAIR      46  34  61 SE5       30.02F
GRAFTON        FAIR      46  34  61 SE6       30.02F
CANDO          FAIR      50  37  62 S15G21    29.96F
FORT TOTTEN    NOT AVBL
ROLLA          FAIR      46  39  76 S10G17    29.95F
RUGBY          FAIR      50  39  66 SE13      29.92F
 ***** THE ABOVE OBSERVATIONS ARE NON NWS ARE NOT QUALITY
        CONTROLLED AND MAY MIS-REPORT RAIN FOR SNOW...
$$

 *****  OTHER OBSERVATIONS SOUTHEAST NORTH DAKOTA *****

CITY           SKY/WX    TMP DP  RH WIND       PRES   REMARKS
COOPERSTOWN    FAIR      55  37  50 S17       29.98F
VALLEY CITY    FAIR      57  37  47 S12       29.99S
OAKES          FAIR      61  39  44 S8        29.99S
GWINNER        SUNNY     63  37  39 SE14      30.01S
BUFFALO        NOT AVBL
WYNDMERE       NOT AVBL
 ***** THE ABOVE OBSERVATIONS ARE NON NWS ARE NOT QUALITY
       CONTROLLED AND MAY MIS-REPORT RAIN FOR SNOW...
$$

  *****  WEATHER ACROSS NORTHERN MINNESOTA  *****

CITY           SKY/WX    TMP DP  RH WIND       PRES   REMARKS
FLAG ISLAND    SUNNY     36  30  80 SE8       30.02F
WARROAD        SUNNY     45  36  70 S3        30.04S
ROSEAU         SUNNY     46  36  66 CALM      30.03F
HALLOCK        CLOUDY    46  36  66 SE3       30.02F
THF RVR FALLS  SUNNY     50  34  53 CALM      30.04R
HALSTAD          N/A     58  32  37 S3          N/A
FOSSTON        SUNNY     57  34  41 CALM      30.01S
BAUDETTE       SUNNY     45  33  63 SE3       30.04S
WASKISH        SUNNY     48  37  66 NW3       30.04S
CROOKSTON      SUNNY     52  37  58 SW7       30.03S
$$
  *****  WEATHER ACROSS CENTRAL AND WEST MINNESOTA  *****

CITY           SKY/WX    TMP DP  RH WIND       PRES   REMARKS
BEMIDJI        SUNNY     55  33  42 SE6       30.01F
PARK RAPIDS    SUNNY     57  32  38 S6        30.02S
WADENA         SUNNY     57  36  44 SE8       30.03S
DETROIT LAKES  SUNNY     59  34  38 S9        30.02S
MOORHEAD       NOT AVBL
FERGUS FALLS   SUNNY     61  30  31 SE7       29.99R
ELBOW LAKE     FAIR      60  36  40 E7        30.02R
MORRIS MN      SUNNY     64  37  36 E15       30.01S
STAPLES        SUNNY     57  30  35 CALM      30.04R
WHEATON        SUNNY     64  43  45 SE8       30.03F
$$
  *****  WEATHER ELSEWHERE ACROSS MINNESOTA  *****

CITY           SKY/WX    TMP DP  RH WIND       PRES   REMARKS
DULUTH         SUNNY     55  35  47 W3        30.03S
INTRNTL FALLS  SUNNY     47  32  56 VRB6      30.03F
ELY            SUNNY     52  32  46 W5        30.03S
CLOQUET        SUNNY     55  34  44 CALM      30.03F
BRAINERD       SUNNY     64  32  30 VRB5      30.05R
HIBBING        SUNNY     54  35  48 NW6       30.03F
ALEXANDRIA     SUNNY     60  38  43 E8        30.03F
SAINT CLOUD    SUNNY     60  39  45 E7        30.04F
MINNEAPOLIS    PTSUNNY   63  41  44 E6        30.04S
$$

  *****  WEATHER ACROSS SOUTH DAKOTA  *****

CITY           SKY/WX    TMP DP  RH WIND       PRES   REMARKS
SIOUX FALLS    MOSUNNY   70  31  23 E17       29.99S
BROOKINGS      NOT AVBL
WATERTOWN      SUNNY     66  32  28 VRB7      30.01R
HURON          SUNNY     67  31  26 SE8       29.99S
SISSETON         N/A     60  38  43 S10       30.01S
ABERDEEN       SUNNY     59  38  45 SE5       30.00F
MITCHELL       SUNNY     69  32  25 SE13      29.98F
PIERRE         SUNNY     64  31  28 SE13      29.95F
MOBRIDGE       SUNNY     60  32  34 S12       29.94S
RAPID CITY     SUNNY     63  37  38 VRB7      29.92R
$$

  *****  SOME WEATHER IN NEARBY STATES *****

CITY           SKY/WX    TMP DP  RH WIND       PRES   REMARKS
GLASGOW MT     PTSUNNY   57  29  34 W26G36    29.91R
GREAT FALLS MT SUNNY     50  18  28 W25G35    30.06R
CHEYENNE WY    SUNNY     62  33  33 NW15G25   30.09S
SCOTTSBLUFF NE SUNNY     65  42  43 SW5       30.01S
OMAHA NE       CLOUDY    73  51  46 SW10      29.99S
DES MOINES IA  PTSUNNY   76  51  41 S15G22    30.04F
DAVENPORT IA   SUNNY     74  43  32 S14       30.13S
CHICAGO IL     PTSUNNY   68  36  30 S13       30.19F
EAU CLAIRE WI  PTSUNNY   63  52  67 S7        30.05S
LA CROSSE WI   LGT RAIN  54  50  86 S7        30.09R
$$

  *****  SOME NATIONAL WEATHER *****

CITY           SKY/WX    TMP DP  RH WIND       PRES   REMARKS
LA GUARDIA NY  PTSUNNY   52  27  38 NE12      30.49F
RALEIGH NC     PTSUNNY   62  42  47 NE17G29   30.26F
ATLANTA GA     MOSUNNY   65  42  43 NE13G24   30.23F
NEW ORLEANS LA MOSUNNY   75  59  57 SE6       30.19S
OKLAHOMA CITY  CLOUDY    67  56  67 S13       30.11R
ALBUQUERQUE NM PTSUNNY   57  42  57 SW5       30.17R
SALT LAKE CITY MOSUNNY   61  32  33 NW9       30.14R
LOS ANGELES CA MOSUNNY   63  56  78 CALM      30.07R
BOISE ID       SUNNY     50  31  48 W10       30.28R
SEATTLE WA     PTSUNNY   49  37  63 SE9       30.30R
$$

*** WEATHER ACROSS MANITOBA...SASKATCHEWAN AND ONTARIO ***
                ***ONTARIO***

CITY           SKY/WX    TMP DP  RH WIND       PRES   REMARKS
GERALDTON      CLOUDY    41  36  81 S6        29.95F
THUNDER BAY    MOSUNNY   46  37  71 VRB2      30.01F
SIOUX LOOKOUT  PTSUNNY   39  28  65 NW10      29.99S
TORONTO        PTSUNNY   50  32  50 SE7       30.35F
BIG TROUT LK   LGT RAIN  36  34  93 W15       29.74R
PICKLE LAKE    PTSUNNY   36  28  75 W14G26    29.90R
DRYDEN         PTSUNNY   39  28  65 W13       30.00R
KENORA         PTSUNNY   39  27  60 W5        30.02S
$$
                *** MANITOBA***

CITY           SKY/WX    TMP DP  RH WIND       PRES   REMARKS
BRANDON        PTSUNNY   41  34  75 E10       29.99S
DAUPHIN        SUNNY     39  32  75 NE3       29.98F
ISLAND LAKE    CLOUDY    34  34 100 NW10      29.88
PILOT MOUND      N/A     45  36  70 SE12        N/A
THE PAS        MOSUNNY   37  25  60 N3        29.96S
THOMPSON       CLOUDY    32  32 100 N8        29.92R WCI  25
WINNIPEG       PTSUNNY   43  32  65 NW3       30.04S
LYNN LAKE      MOSUNNY   36  23  60 N6        29.93S
CHURCHILL      MOSUNNY   21  18  86 N7        29.98R WCI  13
GILLAM         FLURRIES  30  28  93 N10       29.89  WCI  21
$$
                ***SASKATCHEWAN***

CITY           SKY/WX    TMP DP  RH WIND       PRES   REMARKS
ESTEVAN        CLOUDY    48  39  71 E7        29.84F
KINDERSLEY     PTSUNNY   48  36  61 W14       29.75R
LLOYDMINSTER   CLOUDY    39  34  81 NE6       29.83S
PRINCE ALBERT  CLOUDY    37  30  75 E6        29.91R
REGINA         MOSUNNY   45  37  76 SE13G20   29.82S
YORKTON        SUNNY     39  32  75 E9        29.91F



USA.gov is the U.S. government's official web portal to all federal, state and local government web resources and services.